sat.trackr.live / text

‹ back to catalog

ONEWEB-0289

NORAD 49079 · 2021-075E

PAYLOAD ACTIVE UNKNOWN

§ Identity

Operator
Country
UK
Launch date
2021-08-21
Launch site
TYMSC
Launch vehicle
Mass (kg)
RCS (m²)

Purposes: comms

External: N2YO · Heavens-Above · Gunter

§ Orbital elements

Epoch: 2026-05-25T02:53:50.456832Z

Period
109.29 min
Inclination
87.9158°
Eccentricity
0.0001456
Mean motion
13.17649067 rev/d
Perigee alt
1,192.6 km
Apogee alt
1,194.8 km
Semi-major
7,571.9 km
B*
-3.9211e-4
RAAN
10.4690°
Arg perigee
90.1385°
Mean anomaly
269.9913°
Rev number
23,116

§ Raw data

ONEWEB-02891 49079U 21075E   26145.12072288 -.00000139  00000+0 -39211-3 0  99952 49079  87.9158  10.4690 0001456  90.1385 269.9913 13.17649067231167

JSON: /api/v1/satellites/49079 · /tle

For live sub-satellite position, see the globe view (requires WebGL).

§ Visibility from observer

Set your observer location to see the next 7 days of passes ≥ 10°. The values pass through the URL so the page stays shareable.

No JS? Fill the form by hand. The geolocation button needs JavaScript.